Time,TemperatureF,DewpointF,PressureIn,WindDirection,WindDirectionDegrees,WindSpeedMPH,WindSpeedGustMPH,Humidity,HourlyPrecipIn,Conditions,Clouds,dailyrainin,SolarRadiationWatts/m^2,SoftwareType,DateUTC
2013-07-19 03:32:00,80.0,16.0,-100.00,WSW,241,6.0,9.0,9,-99.99,,,0.00,0.000000,,2013-07-19 10:32:00,
2013-07-19 05:32:00,76.0,20.0,-100.00,WSW,245,6.0,9.0,12,-99.99,,,0.00,0.000000,,2013-07-19 12:32:00,
2013-07-19 09:22:00,88.0,22.0,-100.00,ESE,111,2.0,6.0,9,-99.99,,,0.00,413.000000,,2013-07-19 16:22:00,
2013-07-19 09:32:00,88.0,29.0,-100.00,SE,141,6.0,10.0,12,0.00,,,0.00,639.000000,,2013-07-19 16:32:00,
2013-07-19 10:22:00,88.0,29.0,-100.00,SE,141,6.0,10.0,12,0.00,,,0.00,639.000000,,2013-07-19 17:22:00,
2013-07-19 10:32:00,91.0,24.0,-100.00,East,93,6.0,13.0,9,0.00,,,0.00,839.000000,,2013-07-19 17:32:00,
2013-07-19 11:01:00,91.0,24.0,-100.00,East,93,6.0,13.0,9,0.00,,,0.00,839.000000,,2013-07-19 18:01:00,
2013-07-19 11:11:00,91.0,24.0,-100.00,East,93,6.0,13.0,9,0.00,,,0.00,839.000000,,2013-07-19 18:11:00,
2013-07-19 11:21:00,91.0,24.0,-100.00,East,93,6.0,13.0,9,0.00,,,0.00,839.000000,,2013-07-19 18:21:00,
2013-07-19 11:32:00,94.0,27.0,-100.00,ESE,121,6.0,12.0,9,0.00,,,0.00,988.000000,,2013-07-19 18:32:00,
2013-07-19 12:01:00,94.0,27.0,-100.00,ESE,121,6.0,12.0,9,0.00,,,0.00,988.000000,,2013-07-19 19:01:00,
2013-07-19 12:11:00,94.0,27.0,-100.00,ESE,121,6.0,12.0,9,0.00,,,0.00,988.000000,,2013-07-19 19:11:00,
2013-07-19 12:21:00,94.0,27.0,-100.00,ESE,121,6.0,12.0,9,0.00,,,0.00,988.000000,,2013-07-19 19:21:00,
2013-07-19 12:32:00,92.0,25.0,-100.00,SE,124,6.0,14.0,9,0.00,,,0.00,1074.000000,,2013-07-19 19:32:00,
2013-07-19 13:01:00,92.0,25.0,-100.00,SE,124,6.0,14.0,9,0.00,,,0.00,1074.000000,,2013-07-19 20:01:00,
2013-07-19 13:11:00,92.0,25.0,-100.00,SE,124,6.0,14.0,9,0.00,,,0.00,1074.000000,,2013-07-19 20:11:00,
2013-07-19 13:22:00,92.0,25.0,-100.00,SE,124,6.0,14.0,9,0.00,,,0.00,1074.000000,,2013-07-19 20:22:00,
2013-07-19 13:32:00,96.0,25.0,-100.00,ESE,121,9.0,17.0,8,0.00,,,0.00,1101.000000,,2013-07-19 20:32:00,
2013-07-19 14:01:00,96.0,25.0,-100.00,ESE,121,9.0,17.0,8,0.00,,,0.00,1101.000000,,2013-07-19 21:01:00,
2013-07-19 14:11:00,96.0,25.0,-100.00,ESE,121,9.0,17.0,8,0.00,,,0.00,1101.000000,,2013-07-19 21:11:00,
2013-07-19 14:21:00,96.0,25.0,-100.00,ESE,121,9.0,17.0,8,0.00,,,0.00,1101.000000,,2013-07-19 21:21:00,
2013-07-19 14:32:00,95.0,24.0,-100.00,South,170,12.0,25.0,8,0.00,,,0.00,1112.000000,,2013-07-19 21:32:00,
2013-07-19 15:01:00,95.0,24.0,-100.00,South,170,12.0,25.0,8,0.00,,,0.00,1112.000000,,2013-07-19 22:01:00,
2013-07-19 15:11:00,95.0,24.0,-100.00,South,170,12.0,25.0,8,0.00,,,0.00,1112.000000,,2013-07-19 22:11:00,
2013-07-19 15:21:00,95.0,24.0,-100.00,South,170,12.0,25.0,8,0.00,,,0.00,1112.000000,,2013-07-19 22:21:00,
2013-07-19 15:32:00,94.0,27.0,-100.00,South,175,9.0,19.0,9,0.00,,,0.00,992.000000,,2013-07-19 22:32:00,
2013-07-19 16:01:00,94.0,27.0,-100.00,South,175,9.0,19.0,9,0.00,,,0.00,992.000000,,2013-07-19 23:01:00,
2013-07-19 16:11:00,94.0,27.0,-100.00,South,175,9.0,19.0,9,0.00,,,0.00,992.000000,,2013-07-19 23:11:00,
2013-07-19 16:21:00,94.0,27.0,-100.00,South,175,9.0,19.0,9,0.00,,,0.00,992.000000,,2013-07-19 23:21:00,
2013-07-19 16:32:00,93.0,28.0,-100.00,SSE,163,7.0,19.0,10,0.00,,,0.00,833.000000,,2013-07-19 23:32:00,
2013-07-19 17:01:00,93.0,28.0,-100.00,SSE,163,7.0,19.0,10,0.00,,,0.00,833.000000,,2013-07-20 00:01:00,
2013-07-19 17:11:00,93.0,28.0,-100.00,SSE,163,7.0,19.0,10,0.00,,,0.00,833.000000,,2013-07-20 00:11:00,
2013-07-19 17:21:00,93.0,28.0,-100.00,SSE,163,7.0,19.0,10,0.00,,,0.00,833.000000,,2013-07-20 00:21:00,
2013-07-19 17:32:00,91.0,29.0,-100.00,SSE,168,11.0,21.0,11,0.00,,,0.00,550.000000,,2013-07-20 00:32:00,
2013-07-19 18:01:00,91.0,29.0,-100.00,SSE,168,11.0,21.0,11,0.00,,,0.00,550.000000,,2013-07-20 01:01:00,
2013-07-19 18:11:00,91.0,29.0,-100.00,SSE,168,11.0,21.0,11,0.00,,,0.00,550.000000,,2013-07-20 01:11:00,
2013-07-19 18:22:00,91.0,29.0,-100.00,SSE,168,11.0,21.0,11,0.00,,,0.00,550.000000,,2013-07-20 01:22:00,
2013-07-19 18:32:00,89.0,32.0,-100.00,NW,309,5.0,21.0,13,0.00,,,0.00,72.000000,,2013-07-20 01:32:00,
2013-07-19 19:01:00,89.0,32.0,-100.00,NW,309,5.0,21.0,13,0.00,,,0.00,72.000000,,2013-07-20 02:01:00,
2013-07-19 19:11:00,89.0,32.0,-100.00,NW,309,5.0,21.0,13,0.00,,,0.00,72.000000,,2013-07-20 02:11:00,
2013-07-19 19:22:00,89.0,32.0,-100.00,NW,309,5.0,21.0,13,0.00,,,0.00,72.000000,,2013-07-20 02:22:00,
2013-07-19 19:32:00,85.0,29.0,-100.00,WNW,299,15.0,24.0,13,0.00,,,0.00,37.000000,,2013-07-20 02:32:00,
2013-07-19 20:02:00,85.0,29.0,-100.00,WNW,299,15.0,24.0,13,0.00,,,0.00,37.000000,,2013-07-20 03:02:00,
2013-07-19 20:11:00,85.0,29.0,-100.00,WNW,299,15.0,24.0,13,0.00,,,0.00,37.000000,,2013-07-20 03:11:00,
2013-07-19 20:22:00,85.0,29.0,-100.00,WNW,299,15.0,24.0,13,0.00,,,0.00,37.000000,,2013-07-20 03:22:00,
2013-07-19 20:32:00,84.0,28.0,-100.00,West,266,15.0,26.0,13,0.00,,,0.00,7.000000,,2013-07-20 03:32:00,
2013-07-19 20:53:00,84.0,28.0,-100.00,West,266,15.0,26.0,13,0.00,,,0.00,7.000000,,2013-07-20 03:53:00,
2013-07-19 21:01:00,84.0,28.0,-100.00,West,266,15.0,26.0,13,0.00,,,0.00,7.000000,,2013-07-20 04:01:00,
2013-07-19 21:11:00,84.0,28.0,-100.00,West,266,15.0,26.0,13,0.00,,,0.00,7.000000,,2013-07-20 04:11:00,
2013-07-19 21:22:00,84.0,28.0,-100.00,West,266,15.0,26.0,13,0.00,,,0.00,7.000000,,2013-07-20 04:22:00,
2013-07-19 21:32:00,85.0,27.0,-100.00,WNW,288,15.0,25.0,12,0.00,,,0.00,0.000000,,2013-07-20 04:32:00,
2013-07-19 22:02:00,85.0,27.0,-100.00,WNW,288,15.0,25.0,12,0.00,,,0.00,0.000000,,2013-07-20 05:02:00,
2013-07-19 22:11:00,85.0,27.0,-100.00,WNW,288,15.0,25.0,12,0.00,,,0.00,0.000000,,2013-07-20 05:11:00,
2013-07-19 22:22:00,85.0,27.0,-100.00,WNW,288,15.0,25.0,12,0.00,,,0.00,0.000000,,2013-07-20 05:22:00,
2013-07-19 22:32:00,85.0,27.0,-100.00,WNW,290,15.0,22.0,12,0.00,,,0.00,0.000000,,2013-07-20 05:32:00,
2013-07-19 23:01:00,85.0,27.0,-100.00,WNW,290,15.0,22.0,12,0.00,,,0.00,0.000000,,2013-07-20 06:01:00,
2013-07-19 23:11:00,85.0,27.0,-100.00,WNW,290,15.0,22.0,12,0.00,,,0.00,0.000000,,2013-07-20 06:11:00,
2013-07-19 23:21:00,85.0,27.0,-100.00,WNW,290,15.0,22.0,12,0.00,,,0.00,0.000000,,2013-07-20 06:21:00,
2013-07-19 23:32:00,85.0,27.0,-100.00,West,277,10.0,18.0,12,0.00,,,0.00,0.000000,,2013-07-20 06:32:00,
2013-07-19 23:52:00,85.0,27.0,-100.00,West,277,10.0,18.0,12,0.00,,,0.00,0.000000,,2013-07-20 06:52:00,